Weather History for Chicopee, MA

Change the Weather History Date:

Thursday, November 8, 2012

  Actual Average Record
Temperature  
Mean Temperature 36 °F -  
Max Temperature 41 °F 48 °F 69 °F (2011)
Min Temperature 32 °F 31 °F 21 °F (1999)
Degree Days  
Heating Degree Days 28    
Moisture  
Dew Point 29 °F    
Average Humidity 74    
Maximum Humidity 87    
Minimum Humidity 58    
Precipitation  
Precipitation 0.21 in - - ()
Sea Level Pressure  
Sea Level Pressure 29.75 in    
Wind  
Wind Speed 20 mph (NNE)    
Max Wind Speed 30 mph    
Max Gust Speed 38 mph    
Visibility 10 miles    
Events Rain , Snow    
Averages and records for this station are not official NWS values.
T = Trace of Precipitation, MM = Missing Value Source: NWS Daily Summary

Daily Weather History Graph

Daily Weather History Graph

Search for Another Location

Airport:

Trip Planner

Search our weather history database for the weather conditions in past years. The results will help you decide how hot, cold, wet, or windy it might be!

Date:

Astronomy

Nov. 08, 2012 Rise Set
Actual Time 6:32 AM EST 4:34 PM EST
Civil Twilight 6:02 AM EST 5:04 PM EST
Nautical Twilight 5:29 AM EST 5:38 PM EST
Astronomical Twilight 4:56 AM EST 6:10 PM EST
Moon 12:18 AM EST (11/8) 1:20 PM EST (11/8)
Length of Visible Light 11h 01m
Length of Day
10h 02m
Waning Crescent, 33% of the Moon is Illuminated
Nov 8
Waning Crescent
Nov 13
New
Nov 20
First Quarter
Nov 28
Full
Dec 6
Last Quarter

Hourly Weather History & Observations

Time (EST) Temp. Windchill Dew Point Humidity Pressure Visibility Wind Dir Wind Speed Gust Speed Precip Events Conditions
12:19 AM 32.0 °F 21.2 °F 24.8 °F 75% 29.79 in 10.0 mi NNE 16.1 mph 25.3 mph N/A   Overcast
12:50 AM 33.8 °F 21.0 °F 23.0 °F 65% 29.76 in 10.0 mi NNE 25.3 mph 33.4 mph N/A   Overcast
12:52 AM 33.8 °F 20.1 °F 23.0 °F 65% 29.76 in 10.0 mi NNE 29.9 mph 33.4 mph N/A   Overcast
12:55 AM 34.5 °F 21.3 °F 22.8 °F 62% 29.76 in 10.0 mi NNE 28.8 mph 36.8 mph 0.00 in   Overcast
1:12 AM 35.6 °F 23.7 °F 23.0 °F 60% 29.75 in 10.0 mi NNE 24.2 mph 32.2 mph N/A   Overcast
1:47 AM 33.8 °F 22.5 °F 24.8 °F 70% 29.76 in 10.0 mi NNE 19.6 mph 26.5 mph N/A Rain Light Rain
1:55 AM 34.2 °F 22.1 °F 24.4 °F 68% 29.75 in 10.0 mi NNE 23.0 mph 29.9 mph 0.00 in Rain Light Rain
2:00 AM 33.8 °F 21.0 °F 24.8 °F 70% 29.75 in 10.0 mi NNE 25.3 mph 38.0 mph N/A   Overcast
2:12 AM 33.8 °F 21.0 °F 24.8 °F 70% 29.76 in 10.0 mi NNE 25.3 mph 34.5 mph N/A   Overcast
2:18 AM 33.8 °F 20.5 °F 24.8 °F 70% 29.76 in 10.0 mi NNE 27.6 mph 36.8 mph N/A Rain Light Rain
2:55 AM 32.2 °F 19.7 °F 27.7 °F 83% 29.76 in 7.0 mi NNE 21.9 mph 31.1 mph 0.00 in Rain Light Rain
3:08 AM 32.0 °F 20.1 °F 28.4 °F 87% 29.77 in 3.0 mi NNE 19.6 mph 25.3 mph N/A   Overcast
3:38 AM 32.0 °F 22.1 °F 26.6 °F 80% 29.75 in 10.0 mi NNE 13.8 mph 26.5 mph N/A   Overcast
3:43 AM 33.8 °F 23.2 °F 24.8 °F 70% 29.75 in 10.0 mi NNE 17.3 mph 23.0 mph N/A   Overcast
3:55 AM 34.0 °F 22.7 °F 24.4 °F 68% 29.75 in 10.0 mi NNE 19.6 mph 27.6 mph 0.00 in   Overcast
3:56 AM 33.8 °F 22.5 °F 24.8 °F 70% 29.75 in 10.0 mi NNE 19.6 mph 27.6 mph N/A   Overcast
4:23 AM 35.6 °F 24.5 °F 24.8 °F 65% 29.74 in 10.0 mi NNE 20.7 mph 31.1 mph N/A   Overcast
4:32 AM 35.6 °F 25.2 °F 24.8 °F 65% 29.75 in 10.0 mi NNE 18.4 mph 28.8 mph N/A   Overcast
4:38 AM 35.6 °F 25.2 °F 24.8 °F 65% 29.74 in 10.0 mi NNE 18.4 mph 24.2 mph N/A   Overcast
4:39 AM 35.6 °F 24.8 °F 24.8 °F 65% 29.74 in 10.0 mi NNE 19.6 mph 26.5 mph N/A   Overcast
4:51 AM 35.6 °F 24.2 °F 24.8 °F 65% 29.74 in 10.0 mi NNE 21.9 mph 27.6 mph N/A   Overcast
4:55 AM 35.1 °F 24.1 °F 24.8 °F 66% 29.74 in 10.0 mi NNE 19.6 mph 27.6 mph 0.00 in   Overcast
5:07 AM 35.6 °F 24.8 °F 24.8 °F 65% 29.73 in 10.0 mi NNE 19.6 mph 26.5 mph N/A   Overcast
5:20 AM 35.6 °F 23.4 °F 24.8 °F 65% 29.73 in 10.0 mi NNE 25.3 mph 35.7 mph N/A   Overcast
5:30 AM 35.6 °F 25.2 °F 24.8 °F 65% 29.73 in 10.0 mi NNE 18.4 mph 26.5 mph N/A   Mostly Cloudy
5:55 AM 34.9 °F 24.2 °F 25.5 °F 69% 29.73 in 10.0 mi NNE 18.4 mph 29.9 mph 0.00 in   Scattered Clouds
6:29 AM 33.8 °F 22.2 °F 24.8 °F 70% 29.73 in 10.0 mi NNE 20.7 mph 29.9 mph N/A   Overcast
6:47 AM 33.8 °F 22.5 °F 24.8 °F 70% 29.73 in 10.0 mi NNE 19.6 mph 29.9 mph N/A Snow Light Snow
6:55 AM 34.0 °F 22.1 °F 25.7 °F 72% 29.73 in 10.0 mi NNE 21.9 mph 33.4 mph 0.00 in Rain Light Rain
7:01 AM 33.8 °F 22.2 °F 26.6 °F 75% 29.73 in 10.0 mi NNE 20.7 mph 33.4 mph N/A   Overcast
7:55 AM 35.4 °F 24.6 °F 24.4 °F 64% 29.73 in 10.0 mi NNE 19.6 mph 32.2 mph 0.00 in   Overcast
8:55 AM 37.6 °F 27.4 °F 24.3 °F 59% 29.72 in 10.0 mi NNE 19.6 mph - N/A   Overcast
9:55 AM 38.7 °F 28.8 °F 25.7 °F 60% 29.73 in 10.0 mi NNE 19.6 mph 26.5 mph N/A   Overcast
10:55 AM 40.6 °F 31.2 °F 26.8 °F 58% 29.71 in 10.0 mi NNE 20.7 mph 32.2 mph N/A   Overcast
11:55 AM 41.5 °F 32.4 °F 27.9 °F 58% 29.70 in 10.0 mi NNE 20.7 mph 27.6 mph N/A   Overcast
12:27 PM 41.0 °F 31.4 °F 28.4 °F 61% 29.70 in 10.0 mi North 21.9 mph 32.2 mph N/A   Overcast
12:55 PM 39.7 °F 30.6 °F 30.6 °F 70% 29.70 in 10.0 mi NNE 18.4 mph 24.2 mph 0.00 in Rain Light Rain
1:12 PM 39.2 °F 31.2 °F 32.0 °F 75% 29.71 in 10.0 mi NNE 13.8 mph - N/A Rain Rain
1:15 PM 39.2 °F 32.5 °F 32.0 °F 75% 29.71 in 10.0 mi NNE 10.4 mph - N/A Rain Light Rain
1:55 PM 38.1 °F 29.1 °F 32.7 °F 81% 29.72 in 10.0 mi NNE 16.1 mph 23.0 mph 0.07 in Rain Rain
2:55 PM 37.8 °F 29.8 °F 33.6 °F 85% 29.73 in 10.0 mi NNE 12.7 mph - 0.11 in Rain Light Rain
3:09 PM 37.4 °F 28.9 °F 33.8 °F 87% 29.73 in 10.0 mi NNE 13.8 mph - N/A Rain Light Rain
3:13 PM 37.4 °F 29.8 °F 33.8 °F 87% 29.73 in 10.0 mi NNE 11.5 mph - N/A Rain Light Rain
3:22 PM 37.4 °F 29.8 °F 33.8 °F 87% 29.74 in 10.0 mi NNE 11.5 mph - N/A Rain Light Rain
3:29 PM 37.4 °F 28.5 °F 33.8 °F 87% 29.74 in 10.0 mi NNE 15.0 mph 20.7 mph N/A Rain Light Rain
3:39 PM 37.4 °F 29.3 °F 33.8 °F 87% 29.74 in 10.0 mi NNE 12.7 mph - N/A   Light Drizzle
3:43 PM 37.4 °F 28.5 °F 33.8 °F 87% 29.74 in 10.0 mi NNE 15.0 mph 20.7 mph N/A   Light Drizzle
3:45 PM 37.4 °F 28.5 °F 33.8 °F 87% 29.74 in 10.0 mi NNE 15.0 mph 20.7 mph N/A   Light Drizzle
3:46 PM 37.4 °F 28.5 °F 33.8 °F 87% 29.74 in 10.0 mi NNE 15.0 mph 20.7 mph N/A   Overcast
3:47 PM 37.4 °F 28.2 °F 33.8 °F 87% 29.74 in 10.0 mi NNE 16.1 mph 20.7 mph N/A   Overcast
3:55 PM 37.9 °F 28.9 °F 33.3 °F 83% 29.75 in 10.0 mi NNE 16.1 mph 23.0 mph 0.02 in   Overcast
4:01 PM 37.4 °F 26.9 °F 33.8 °F 87% 29.75 in 10.0 mi NNE 20.7 mph 26.5 mph N/A Rain Light Rain
4:04 PM 37.4 °F 28.2 °F 33.8 °F 87% 29.75 in 10.0 mi NNE 16.1 mph 26.5 mph N/A Rain Light Rain
4:05 PM 37.4 °F 27.8 °F 33.8 °F 87% 29.75 in 10.0 mi NNE 17.3 mph 26.5 mph N/A Rain Light Rain
4:14 PM 37.4 °F 28.9 °F 32.0 °F 81% 29.75 in 10.0 mi NNE 13.8 mph - N/A Rain Light Rain
4:15 PM 37.4 °F 28.5 °F 32.0 °F 81% 29.76 in 10.0 mi NNE 15.0 mph - N/A   Overcast
4:16 PM 37.4 °F 28.5 °F 32.0 °F 81% 29.76 in 10.0 mi NNE 15.0 mph - N/A   Overcast
4:25 PM 37.4 °F 28.9 °F 32.0 °F 81% 29.76 in 10.0 mi NNE 13.8 mph - N/A   Overcast
4:27 PM 37.4 °F 29.3 °F 32.0 °F 81% 29.77 in 10.0 mi North 12.7 mph - N/A   Light Drizzle
4:32 PM 37.4 °F 28.9 °F 32.0 °F 81% 29.77 in 10.0 mi NNE 13.8 mph - N/A   Light Drizzle
4:36 PM 37.4 °F 29.3 °F 32.0 °F 81% 29.77 in 10.0 mi NNE 12.7 mph 20.7 mph N/A   Overcast
4:40 PM 37.4 °F 28.9 °F 32.0 °F 81% 29.77 in 10.0 mi North 13.8 mph 21.9 mph N/A   Overcast
4:45 PM 37.4 °F 26.9 °F 32.0 °F 81% 29.77 in 10.0 mi North 20.7 mph 26.5 mph N/A   Overcast
4:48 PM 37.4 °F 27.5 °F 32.0 °F 81% 29.77 in 10.0 mi North 18.4 mph 26.5 mph N/A   Overcast
4:49 PM 37.4 °F 27.5 °F 32.0 °F 81% 29.77 in 10.0 mi North 18.4 mph 26.5 mph N/A   Overcast
4:55 PM 38.1 °F 27.3 °F 30.7 °F 75% 29.77 in 10.0 mi North 23.0 mph - 0.01 in   Overcast
4:59 PM 37.4 °F 27.2 °F 30.2 °F 75% 29.77 in 10.0 mi NNE 19.6 mph 28.8 mph N/A Rain Light Rain
5:08 PM 37.4 °F 26.9 °F 30.2 °F 75% 29.78 in 10.0 mi NNE 20.7 mph 27.6 mph N/A   Overcast
5:55 PM 38.1 °F 28.4 °F 29.8 °F 72% 29.80 in 10.0 mi NNE 18.4 mph 32.2 mph 0.00 in   Overcast
6:55 PM 39.0 °F 29.9 °F 28.6 °F 66% 29.81 in 10.0 mi North 17.3 mph 23.0 mph N/A   Overcast
7:55 PM 39.4 °F 31.4 °F 28.8 °F 66% 29.82 in 10.0 mi North 13.8 mph 25.3 mph N/A   Overcast
8:55 PM 39.4 °F 32.3 °F 29.3 °F 67% 29.83 in 10.0 mi North 11.5 mph 20.7 mph N/A   Overcast
9:55 PM 39.4 °F 31.4 °F 29.7 °F 68% 29.83 in 10.0 mi North 13.8 mph - N/A   Overcast
10:55 PM 38.8 °F 31.2 °F 29.8 °F 70% 29.83 in 10.0 mi North 12.7 mph 18.4 mph N/A   Overcast
11:55 PM 38.8 °F 31.2 °F 29.1 °F 68% 29.83 in 10.0 mi North 12.7 mph - N/A   Overcast